| time (UTC) | temp C | wind direction | speed KPH | gust KPH | rain 1hr cm | rain 24hr cm | rain mn cm | humidity % | barometer mb |
| 20260508231556 | 15 | 322 | 8.0 | 0.0 | 0.00 | 0.00 | 0.00 | 60 | 999.7 |
| 20260508230027 | 16 | 180 | 6.4 | 0.0 | 0.00 | 0.00 | 0.00 | 51 | 999.1 |
| 20260508224514 | 16 | 0 | 6.4 | 0.0 | 0.00 | 0.00 | 0.00 | 44 | 998.1 |
| 20260508223016 | 17 | 289 | 1.6 | 0.0 | 0.00 | 0.00 | 0.00 | 45 | 998.0 |
| 20260508221513 | 17 | 275 | 1.6 | 0.0 | 0.00 | 0.00 | 0.00 | 45 | 998.2 |
| 20260508220005 | 16 | 276 | 1.6 | 0.0 | 0.00 | 0.00 | 0.00 | 45 | 998.1 |
| 20260508213014 | 15 | 290 | 0.0 | 0.0 | 0.00 | 0.00 | 0.00 | 47 | 997.5 |
| 20260508210018 | 14 | 262 | 1.6 | 0.0 | 0.00 | 0.00 | 0.00 | 48 | 997.5 |
| 20260508204505 | 13 | 293 | 3.2 | 0.0 | 0.00 | 0.00 | 0.00 | 50 | 997.2 |
| 20260508203015 | 13 | 214 | 1.6 | 0.0 | 0.00 | 0.00 | 0.00 | 49 | 997.0 |
| 20260508201524 | 13 | 249 | 0.0 | 0.0 | 0.00 | 0.00 | 0.00 | 49 | 997.2 |
| 20260508200012 | 14 | 248 | 1.6 | 0.0 | 0.00 | 0.00 | 0.00 | 46 | 997.0 |
| 20260508194516 | 13 | 271 | 4.8 | 0.0 | 0.00 | 0.00 | 0.00 | 49 | 997.0 |
| 20260508193020 | 13 | 228 | 3.2 | 0.0 | 0.00 | 0.00 | 0.00 | 49 | 996.9 |
| 20260508191514 | 13 | 262 | 0.0 | 0.0 | 0.00 | 0.00 | 0.00 | 47 | 996.9 |
| 20260508190103 | 14 | 285 | 3.2 | 0.0 | 0.00 | 0.00 | 0.00 | 46 | 996.9 |
| 20260508184604 | 14 | 243 | 4.8 | 0.0 | 0.00 | 0.00 | 0.00 | 44 | 996.6 |
| 20260508183103 | 14 | 281 | 1.6 | 0.0 | 0.00 | 0.00 | 0.00 | 44 | 996.3 |
| 20260508181506 | 14 | 307 | 3.2 | 0.0 | 0.00 | 0.00 | 0.00 | 44 | 996.3 |
| 20260508180024 | 14 | 278 | 3.2 | 0.0 | 0.00 | 0.00 | 0.00 | 43 | 996.8 |
| 20260508174512 | 14 | 263 | 9.7 | 0.0 | 0.00 | 0.00 | 0.00 | 44 | 996.8 |
| 20260508173058 | 13 | 274 | 8.0 | 0.0 | 0.00 | 0.00 | 0.00 | 44 | 996.5 |
| 20260508171524 | 13 | 285 | 9.7 | 0.0 | 0.00 | 0.00 | 0.00 | 44 | 996.6 |
| 20260508170019 | 13 | 227 | 8.0 | 0.0 | 0.00 | 0.00 | 0.00 | 43 | 996.6 |
| 20260508164553 | 13 | 279 | 3.2 | 0.0 | 0.00 | 0.00 | 0.00 | 48 | 996.9 |
| 20260508163107 | 14 | 273 | 6.4 | 0.0 | 0.00 | 0.00 | 0.00 | 46 | 996.4 |
| 20260508161523 | 14 | 288 | 11.3 | 0.0 | 0.00 | 0.00 | 0.00 | 42 | 996.4 |
| 20260508160023 | 15 | 242 | 9.7 | 0.0 | 0.00 | 0.00 | 0.00 | 43 | 995.9 |
| 20260508154500 | 15 | 265 | 9.7 | 0.0 | 0.00 | 0.00 | 0.00 | 41 | 996.1 |
| 20260508153014 | 15 | 274 | 12.9 | 0.0 | 0.00 | 0.00 | 0.00 | 42 | 995.7 |
| 20260508151532 | 15 | 310 | 11.3 | 0.0 | 0.00 | 0.00 | 0.00 | 43 | 995.2 |
| 20260508150004 | 15 | 276 | 11.3 | 0.0 | 0.00 | 0.00 | 0.18 | 45 | 995.3 |
| 20260508144524 | 15 | 175 | 9.7 | 0.0 | 0.00 | 0.00 | 0.18 | 46 | 995.3 |
| 20260508143057 | 15 | 258 | 8.0 | 0.0 | 0.00 | 0.00 | 0.18 | 50 | 995.5 |
| 20260508141521 | 15 | 191 | 4.8 | 0.0 | 0.00 | 0.00 | 0.18 | 55 | 995.8 |
| 20260508140033 | 15 | 262 | 8.0 | 0.0 | 0.00 | 0.00 | 0.18 | 54 | 995.8 |
| 20260508134522 | 16 | 278 | 11.3 | 0.0 | 0.00 | 0.00 | 0.18 | 52 | 995.4 |
| 20260508133021 | 15 | 290 | 6.4 | 0.0 | 0.00 | 0.00 | 0.18 | 54 | 995.7 |
| 20260508131509 | 15 | 110 | 1.6 | 0.0 | 0.00 | 0.00 | 0.18 | 60 | 995.9 |
| 20260508124533 | 15 | 290 | 0.0 | 0.0 | 0.00 | 0.00 | 0.18 | 64 | 996.4 |
| 20260508121519 | 15 | 278 | 3.2 | 0.0 | 0.00 | 0.00 | 0.18 | 65 | 996.1 |
| 20260508114506 | 16 | 262 | 3.2 | 0.0 | 0.00 | 0.00 | 0.18 | 70 | 995.9 |
| 20260508113016 | 16 | 275 | 1.6 | 0.0 | 0.00 | 0.00 | 0.18 | 70 | 996.0 |
| 20260508111510 | 16 | 238 | 1.6 | 0.0 | 0.00 | 0.00 | 0.18 | 69 | 995.9 |
| 20260508110005 | 17 | 283 | 1.6 | 0.0 | 0.00 | 0.00 | 0.18 | 72 | 995.9 |
| 20260508104505 | 16 | 231 | 1.6 | 0.0 | 0.00 | 0.00 | 0.18 | 78 | 995.4 |
| 20260508103119 | 17 | 259 | 0.0 | 0.0 | 0.00 | 0.00 | 0.18 | 80 | 995.3 |
| 20260508101514 | 17 | 188 | 0.0 | 0.0 | 0.00 | 0.00 | 0.18 | 80 | 994.9 |
| 20260508100103 | 17 | 269 | 0.0 | 0.0 | 0.00 | 0.00 | 0.18 | 80 | 994.9 |
| 20260508094603 | 17 | 245 | 0.0 | 0.0 | 0.00 | 0.00 | 0.18 | 81 | 994.3 |
| 20260508093012 | 17 | 176 | 0.0 | 0.0 | 0.00 | 0.00 | 0.18 | 81 | 994.6 |
| 20260508091608 | 17 | 269 | 0.0 | 0.0 | 0.00 | 0.00 | 0.18 | 81 | 994.8 |
| 20260508090108 | 17 | 267 | 0.0 | 0.0 | 0.00 | 0.00 | 0.18 | 81 | 994.8 |
| 20260508084533 | 18 | 271 | 0.0 | 0.0 | 0.00 | 0.00 | 0.18 | 81 | 994.7 |
| 20260508081608 | 18 | 226 | 0.0 | 0.0 | 0.00 | 0.00 | 0.18 | 80 | 994.7 |
| 20260508080113 | 20 | 242 | 0.0 | 0.0 | 0.00 | 0.00 | 0.15 | 79 | 994.9 |
| 20260508074503 | 20 | 253 | 0.0 | 0.0 | 0.00 | 0.00 | 0.05 | 76 | 994.5 |
| 20260508073001 | 20 | 271 | 0.0 | 0.0 | 0.00 | 0.00 | 0.05 | 77 | 994.6 |
| 20260508071538 | 20 | 282 | 0.0 | 0.0 | 0.00 | 0.00 | 0.05 | 77 | 994.9 |
| 20260508064519 | 20 | 263 | 3.2 | 0.0 | 0.00 | 0.00 | 0.05 | 74 | 994.8 |
| 20260508063105 | 21 | 310 | 3.2 | 0.0 | 0.00 | 0.00 | 0.05 | 69 | 994.8 |
| 20260508061527 | 23 | 309 | 1.6 | 0.0 | 0.00 | 0.00 | 0.05 | 61 | 994.3 |
| 20260508060115 | 24 | 283 | 1.6 | 0.0 | 0.00 | 0.00 | 0.03 | 56 | 994.8 |
| 20260508054607 | 25 | 258 | 1.6 | 0.0 | 0.00 | 0.00 | 0.00 | 49 | 994.5 |
| 20260508053013 | 25 | 103 | 0.0 | 0.0 | 0.00 | 0.00 | 0.00 | 46 | 994.7 |
| 20260508051556 | 25 | 128 | 1.6 | 0.0 | 0.00 | 0.00 | 0.00 | 47 | 994.8 |
| 20260508050029 | 25 | 146 | 3.2 | 0.0 | 0.00 | 0.00 | 0.00 | 46 | 995.2 |
| 20260508043004 | 25 | 120 | 4.8 | 0.0 | 0.00 | 0.00 | 0.00 | 47 | 995.9 |
| 20260508041506 | 25 | 356 | 4.8 | 0.0 | 0.00 | 0.00 | 0.00 | 46 | 996.2 |
| 20260508040028 | 25 | 113 | 3.2 | 0.0 | 0.00 | 0.00 | 0.00 | 45 | 996.2 |
| 20260508034518 | 25 | 117 | 3.2 | 0.0 | 0.00 | 0.00 | 0.00 | 42 | 995.8 |
| 20260508033114 | 25 | 109 | 1.6 | 0.0 | 0.00 | 0.00 | 0.00 | 41 | 996.1 |
| 20260508030107 | 25 | 267 | 0.0 | 0.0 | 0.00 | 0.00 | 0.00 | 42 | 996.5 |
| 20260508024510 | 25 | 105 | 1.6 | 0.0 | 0.00 | 0.00 | 0.00 | 40 | 997.3 |
| 20260508023020 | 25 | 97 | 1.6 | 0.0 | 0.00 | 0.00 | 0.00 | 42 | 996.6 |
| 20260508021554 | 25 | 251 | 1.6 | 0.0 | 0.00 | 0.00 | 0.00 | 44 | 996.9 |
| 20260508020038 | 24 | 271 | 0.0 | 0.0 | 0.00 | 0.00 | 0.00 | 46 | 997.8 |
| 20260508013109 | 24 | 290 | 1.6 | 0.0 | 0.00 | 0.00 | 0.00 | 45 | 998.8 |
| 20260508011516 | 24 | 134 | 0.0 | 0.0 | 0.00 | 0.00 | 0.00 | 43 | 998.2 |
| 20260508010022 | 24 | 283 | 0.0 | 0.0 | 0.00 | 0.00 | 0.00 | 44 | 998.5 |
| 20260508004516 | 24 | 75 | 1.6 | 0.0 | 0.00 | 0.00 | 0.00 | 43 | 998.9 |
| 20260508003023 | 25 | 276 | 1.6 | 0.0 | 0.00 | 0.00 | 0.00 | 44 | 998.9 |
| 20260508001603 | 24 | 156 | 0.0 | 0.0 | 0.00 | 0.00 | 0.00 | 45 | 999.1 |
| 20260508000111 | 23 | 134 | 0.0 | 0.0 | 0.00 | 0.00 | 0.00 | 47 | 999.3 |
| 20260507234529 | 22 | 103 | 0.0 | 0.0 | 0.00 | 0.00 | 0.00 | 50 | 999.5 |
| 20260507233018 | 21 | 287 | 1.6 | 0.0 | 0.00 | 0.00 | 0.00 | 52 | 999.9 |